AirNav   Everest Fuels
 
 995 users online  

05PA Peco Mob Heliport
Philadelphia, Pennsylvania, USA

GOING TO PHILADELPHIA?


FAA INFORMATION EFFECTIVE 18 JUNE 2020

Location

FAA Identifier: 05PA
Lat/Long: 39-57-17.4050N 075-10-41.6420W
39-57.290083N 075-10.694033W
39.9548347,-75.1782339
(estimated)
Elevation: 110 ft. / 34 m (estimated)
Variation: 11W (1985)
Time zone: UTC -4 (UTC -5 during Standard Time)
Zip code: 19103

Heliport Operations

Heliport use: Private use. Permission required prior to landing
Activation date: 04/1970
Control tower: no
ARTCC: NEW YORK CENTER
FSS: WILLIAMSPORT FLIGHT SERVICE STATION
Attendance: UNATNDD
Wind indicator: yes
Segmented circle: no
Lights: FOR PERI LGTS CALL 215-841-5399.

Heliport Communications

UNICOM: 123.05
WX ASOS at PHL (6 nm SW): PHONE 215-492-9617
WX ASOS at PNE (11 nm NE): 121.15 (215-677-0146)
WX AWOS-3 at LOM (12 nm N): 118.925 (215-646-1068)
WX ASOS at VAY (15 nm E): 119.325 (609-267-1176)
WX AWOS-3T at OQN (19 nm W): 121.4 ((610) 692-6190)

Nearby radio navigation aids

VOR radial/distance  VOR name  Freq  Var
OODr027/20.0WOODSTOWN VORTAC112.8010W
ARDr225/21.8YARDLEY VOR/DME108.2010W
MXEr093/22.8MODENA VORTAC113.2009W
PTWr141/23.8POTTSTOWN VORTAC116.5009W
DQOr060/25.8DUPONT VORTAC114.0010W
VCNr349/26.9CEDAR LAKE VOR/DME115.2010W
GXUr275/26.9MC GUIRE VORTAC110.6012W
RBVr255/34.7ROBBINSVILLE VORTAC113.8010W
CYNr293/35.3COYLE VORTAC113.4010W

 
NDB name  Hdg/Dist  Freq  Var  ID
AMBLER166/11.427512WING .. -. --.
RAINBOW007/32.336311WRNB .-. -. -...
LAKEHURST273/39.139611WNEL -. . .-..

Heliport Services

Airframe service: NONE
Powerplant service: NONE

Runway Information

Helipad H1

Dimensions: 70 x 70 ft. / 21 x 21 m
Surface: asphalt, in fair condition
ROOFTOP HELIPORT.
Runway edge lights: PERI
Latitude: 39-57.290083N
Longitude: 075-10.694033W
Elevation: 110.0 ft.
Traffic pattern: leftleft
Markings: none, in fair condition

Heliport Ownership and Management from official FAA records

Ownership: Privately-owned
OWNER DESIRES NOT TO BE PUB OR CHARTED.
Owner: PHILADELPHIA ELEC CO
2301 MARKET ST (N3-3)
PHILADELPHIA, PA 19101
Phone (215) 841-5381
Manager: MICHAEL FERRELL
2301 MARKET ST (N3-4
PHILADELPHIA, PA 19101
Phone (215) 841-5399

Additional Remarks

A52-H1 20 STORY BLDG ON SW SIDE; CLEAR APCHS FM NW THRU S.
HELI PVT USE ONLY.
FOR CD CTC PHILADELPHIA APCH AT 800-354-9884.

Instrument Procedures

There are no published instrument procedures at 05PA.

Some nearby airports with instrument procedures:

KPHL - Philadelphia International Airport (6 nm SW)
KPNE - Northeast Philadelphia Airport (11 nm NE)
KLOM - Wings Field Airport (12 nm N)
19N - Camden County Airport (15 nm SE)
KVAY - South Jersey Regional Airport (15 nm E)
17N - Cross Keys Airport (16 nm SE)
7N7 - Spitfire Aerodrome (17 nm SW)
N14 - Flying W Airport (17 nm E)
KOQN - Brandywine Regional Airport (19 nm W)
N10 - Perkiomen Valley Airport (19 nm NW)
 
Loc | Ops | Rwys | IFR | FBO | Links
Com | Nav | Svcs | Stats | Notes
Area around 05PA (Peco Mob Heliport)
 
Road maps at: MapQuest Bing Google
 
Aerial photo
No photo
 
Sectional chart

 
Airport distance calculator
Flying to Peco Mob Heliport? Find the distance to fly.

From to 05PA

Sunrise and sunset
Times for 06-Jul-2020
 Local
(UTC-4)
 Zulu
(UTC)
Morning civil twilight05:0809:08
Sunrise05:4009:40
Sunset20:3100:31
Evening civil twilight21:0301:03

Current date and time
Zulu (UTC)  07-Jul-2020 01:21:59
Local (UTC-4)  06-Jul-2020 21:21:59
 
METAR
KPHL 
6nm SW 
070054Z 24006KT 10SM -RA FEW050 BKN130 OVC220 22/20 A3008 RMK AO2 LTG DSNT W RAB15 SLP185 P0001 T02220200
KPNE 
11nm NE 
070054Z AUTO 00000KT 10SM -RA SCT110 20/19 A3007 RMK AO2 RAB23 SLP181 P0000 T02000194
KLOM 
12nm N 
070055Z AUTO 19006KT 10SM SCT120 20/19 A3005 RMK AO2 P0004 T02050194
KVAY 
16nm E 
ASOS 119.325 609-267-1176
070054Z AUTO 28005KT 10SM -RA SCT110 21/18 A3006 RMK AO2 RAB35 SLP178 P0000 T02060183
KOQN 
19nm W 
070055Z AUTO 18003KT 7SM RA SCT025 BKN043 OVC048 21/20 A3009 RMK AO2 P0006 LTG DSNT SW AND W
TAF
KPHL 
6nm SW 
062041Z 0621/0724 05010KT 6SM SHRA VCTS SCT025CB OVC080 TEMPO 0621/0623 2SM +TSRA BKN025CB FM062300 16007KT P6SM BKN050 BKN200 FM070200 VRB02KT P6SM SCT200 FM070600 VRB02KT 4SM BR SCT010 FM071500 18008KT P6SM SCT250
KPNE 
11nm NE 
062034Z 0621/0718 21010KT 6SM -SHRA VCTS SCT020CB BKN090 TEMPO 0621/0623 4SM -SHRA BR BKN025 OVC040 FM062300 VRB04KT P6SM VCSH BKN040 BKN100 FM070200 VRB02KT P6SM SCT100 FM070700 VRB02KT 4SM BR SCT010
NOTAMs
Click for the latest NOTAMs
NOTAMs are issued by the DoD/FAA and will open in a separate window not controlled by AirNav.

 

 
 

Would you like to see your business listed on this page?

 If your business provides an interesting product or service to pilots, flight crews, aircraft, or users of the Peco Mob Heliport, you should consider listing it here.  To start the listing process, click on the button below
 
Add a business
 

Other Pages about Peco Mob Heliport

Update a link
 
Copyright © AirNav, LLC. All rights reserved. Privacy Policy  Contact